EXPRESS AMU-7

Last updated on Thu Jul 03 2025 00:02:48 GMT+0000 (Coordinated Universal Time)

1 50001U 21123A 25182.88153897 -.00000238 00000+0 00000+0 0 9994 2 50001 0.0174 335.3218 0000473 7.4997 39.6882 1.00271403 13025
UTC large
Height (km)
Speed (km/s)
/
Latitude / Longitude
Inclination (degrees)
Orbital Period (minutes)
Azimuth
Elevation
Range (km)
Doppler Factor

Next 0 passes for location: London (51.5072 / 0.1276)

Sorry there are no passes over London.